Preview of NWS' New Version of Forecast
This preview is not operational and should not be used for support decisions.

Regional Weather Roundup (RWR)

Issued by National Weather Service (NWS)

                            
000
ASUS46 KPQR 201310
RWROR 

OREGON REGIONAL WEATHER ROUNDUP
NATIONAL WEATHER SERVICE PORTLAND OR
600 AM PDT SAT APR 20 2019

NOTE: "FAIR" INDICATES FEW OR NO CLOUDS BELOW 12,000 FEET WITH
NO SIGNIFICANT WEATHER AND/OR OBSTRUCTIONS TO VISIBILITY.

ORZ001>013-201400-
NORTHWEST OREGON

  
CITY           SKY/WX    TMP DP  RH WIND       PRES   REMARKS
ASTORIA        CLOUDY    49  44  83 W5        30.01R                  
TILLAMOOK      CLOUDY    48  45  87 W5        30.02S                  
NEWPORT        CLOUDY    50  45  81 N16G22    30.04R                  
PORTLAND       CLOUDY    51  45  79 NW8       29.97S                  
VANCOUVER WA   CLOUDY    50  45  83 NW5       29.96S                  
SCAPPOOSE      CLOUDY    52  44  74 NW9       29.96S                  
HILLSBORO      CLOUDY    49  44  83 NW8       29.97R                  
AURORA         MOCLDY    50  45  83 NW3       29.98S                  
MCMINNVILLE    CLOUDY    49  48  97 W5        29.97S                  
SALEM          CLOUDY    50  47  89 N6        29.97R                  
CORVALLIS      CLOUDY    50  47  89 NW9       29.98R                  
EUGENE         DRIZZLE   51  48  89 NW3       29.97R                  
$$

ORZ021-028-201400-
SOUTHWEST OREGON

  
CITY           SKY/WX    TMP DP  RH WIND       PRES   REMARKS
NORTH BEND     CLOUDY    51  47  86 N14G24    30.03R                  
BROOKINGS      LGT RAIN  49  47  93 NW7       29.93S                  
ROSEBURG       LGT RAIN  51  51 100 NW6       29.95S                  
SEXTON SUMMIT  LGT RAIN  40  40 100 VRB6      29.86F VSB 1            
GRANTS PASS    CLOUDY    52  45  76 NW8G15    29.93R                  
MEDFORD        LGT RAIN  52  49  89 NW6       29.88R                  
$$

ORZ014>016-041-201400-
COLUMBIA GORGE

  
CITY           SKY/WX    TMP DP  RH WIND       PRES   REMARKS
TROUTDALE      CLOUDY    51  46  83 W5        29.96S                  
HOOD RIVER     CLOUDY    52  45  76 MISG      29.90R                  
THE DALLES     CLOUDY    53  46  77 NW10      29.87S                  
$$

ORZ029>031-041-044-049-050-061>064-502-503-505>511-201400-
EASTERN OREGON

  
CITY           SKY/WX    TMP DP  RH WIND       PRES   REMARKS
MADRAS         DRIZZLE   46  45  93 CALM      29.90S                  
REDMOND        LGT RAIN  47  44  90 CALM      29.87F                  
BEND           LGT RAIN  45  45 100 CALM      29.87F                  
PRINEVILLE     CLOUDY    45  45 100 NW5       29.87S                  
KLAMATH FALLS  CLOUDY    46  43  89 W3        29.82F                  
LAKEVIEW       CLOUDY    46  45  96 NW3       29.82F                  
HERMISTON      LGT RAIN  54  51  90 W7        29.85S                  
PENDLETON      LGT RAIN  50  48  93 W12       29.84F                  
JOHN DAY       CLOUDY    46  45  95 W8        29.85S                  
MEACHAM        LGT RAIN  44  42  93 CALM      29.84F FOG              
LA GRANDE      LGT RAIN  48  45  89 N7        29.84S                  
BAKER CITY     LGT RAIN  48  43  82 NW9       29.81S                  
BURNS          CLOUDY    48  43  82 W7        29.82S                  
ROME             N/A     53  32  44 E8        29.80S                  
ONTARIO        CLOUDY    58  45  62 NW10G16   29.77R                  
$$